Flag for U.S.A. Weather past 2 weeks in Sheboygan, Wisconsin, U.S.A.

Now
51 °F

Passing clouds.


Feels Like: 51 °F
Forecast: 56 / 71 °F
Wind: No wind

Location: Sheboygan County Memorial Airport

Current Time: Jul 24, 2014 at 6:09:18 AM

Latest Report: Jul 24, 2014 at 4:53 AM


Visibility: 10 mi

Pressure: 30.19 "Hg

Humidity: 89%

Dew point: 48 °F

Location of SheboyganLocation

Historic Weather in Sheboygan — Graph

°F

Sheboygan temperature yesterday

Maximum temperature yesterday: 71 °F (at 10:53 AM)
Minimum temperature yesterday: 51 °F (at 11:53 PM)
Average temperature yesterday: 62 °F

Past Weeks' High & Low Weather Summary

 TemperatureHumidityPressure
High86 °F (Jul 22, 6:53 PM)100% (Jul 10, 3:53 AM)30.20 "Hg (Jul 10, 3:53 AM)
Low50 °F (Jul 17, 3:53 AM)37% (Jul 17, 3:53 PM)29.79 "Hg (Jul 14, 2:53 PM)
Average65 °F73%30.02 "Hg
* Reported Jul 9 4:04 AM — Jul 24 4:53 AM, Sheboygan, Weather by CustomWeather, © 2014

Note: Actual official high and low records may vary slightly from our data, if they occured in-between our weather recording intervals... More about our weather records

Advertising

Sheboygan weather history for previous 24 hours

 ConditionsComfort  
Time TempWeatherWind HumidityBarometerVisibility
4:53 AM
Jul 24
51 °FPassing clouds.No wind89%30.19 "Hg10 mi
3:53 AM51 °FPassing clouds.No wind89%30.18 "Hg10 mi
2:53 AM50 °FClear.No wind93%30.17 "Hg10 mi
1:53 AM51 °FClear.5 mph92%30.17 "Hg10 mi
12:53 AM52 °FClear.No wind93%30.18 "Hg10 mi
11:53 PM
Jul 23
51 °FClear.No wind92%30.18 "Hg10 mi
10:53 PM53 °FClear.3 mph89%30.18 "Hg10 mi
9:53 PM54 °FClear.No wind86%30.18 "Hg10 mi
8:53 PM57 °FSunny.3 mph78%30.17 "Hg10 mi
7:53 PM61 °FSunny.6 mph67%30.17 "Hg10 mi
6:53 PM65 °FSunny.9 mph59%30.17 "Hg10 mi
5:53 PM63 °FSunny.10 mph63%30.17 "Hg10 mi
4:53 PM67 °FSunny.15 mph57%30.18 "Hg10 mi
3:53 PM67 °FSunny.14 mph59%30.19 "Hg10 mi
2:53 PM66 °FSunny.13 mph63%30.20 "Hg10 mi
1:53 PM65 °FSunny.15 mph66%30.20 "Hg10 mi
12:53 PM66 °FSunny.15 mph65%30.19 "Hg10 mi
11:53 AM66 °FSunny.12 mph65%30.19 "Hg10 mi
10:53 AM71 °FSunny.13 mph49%30.17 "Hg10 mi
9:53 AM69 °FSunny.10 mph57%30.17 "Hg10 mi
8:53 AM67 °FSunny.9 mph66%30.17 "Hg10 mi
7:53 AM64 °FSunny.8 mph78%30.16 "Hg10 mi
Weather by CustomWeather, © 2014

See weather overviewHow to use our weather pages